Lid_Strength_Index
2 2 2 3 3 3 3 3 3 3 2 3 2 2 3 3 2 4 4 4 4 5 4 4 4 4 5 4 4 4 3 3 4 4 2 1 2 3 4 3 2 2 3
1 2 2 2 2 2 3 3 3 2 1 1 2 3 3 3 2 3 4 4 5 5 5 5 5 4 4 4 4 4 3 2 3 5 4 3 2 4 5 4 4 4 4
2 2 2 2 2 2 2 2 2 2 2 2 2 2 3 3 2 3 4 4 4 4 3 4 5 4 4 4 5 4 4 3 4 6 5 4 5 5 6 4 4 4 5
2 2 3 3 3 2 2 2 2 2 2 2 2 2 2 2 2 2 3 3 4 3 3 3 3 4 4 4 4 4 4 4 4 4 5 5 5 6 6 5 5 5 6
2 2 2 3 2 2 2 2 2 2 2 2 2 3 3 3 3 3 2 2 2 3 2 2 2 2 2 3 3 4 4 4 5 5 5 6 7 7 7 7 6 6 6
3 2 1 2 2 2 1 2 2 2 2 2 2 2 2 2 5 5 3 3 2 3 2 2 2 1 1 2 2 2 3 5 5 5 5 6 6 5 7 7 7 7 7
2 2 2 2 2 1 1 1 1 1 1 1 2 2 2 2 5 5 5 2 2 2 2 2 2 2 2 2 3 3 3 3 3 4 5 5 5 5 6 8 8 7 6
4 3 2 2 2 3 2 1 1 1 1 1 1 1 1 1 5 6 5 3 2 1 1 1 1 1 2 2 3 3 3 3 3 2 3 3 2 3 5 6 6 6 6
3 3 3 3 3 3 3 3 2 1 1 1 1 1 1 1 4 6 5 2 2 2 1 1 2 2 4 5 3 4 4 3 3 3 3 4 5 5 4 6 6 6 5
3 2 2 2 3 2 3 2 2 1 1 1 1 1 2 1 4 6 5 2 2 2 2 2 4 3 6 6 3 4 5 4 3 3 3 4 4 4 5 4 4 4 4
2 2 2 1 2 1 1 1 1 1 1 2 2 2 2 2 1 6 6 2 1 2 2 2 2 6 7 7 6 4 5 4 4 3 4 5 4 4 4 4 3 3 4
2 2 2 1 1 1 1 1 2 2 2 2 2 2 1 1 4 5 6 6 3 2 2 2 3 7 8 7 7 7 7 6 4 3 4 5 5 6 6 4 2 3 3
2 2 2 2 1 1 2 2 3 2 2 2 2 2 2 1 1 4 6 7 6 4 2 3 5 7 7 7 7 7 8 6 4 4 4 4 5 5 5 3 4 4 3
2 2 2 2 2 2 2 2 2 2 2 2 2 3 2 2 1 1 1 2 5 4 3 2 4 5 5 5 5 6 6 5 4 4 4 4 6 6 5 4 4 3 4
2 2 2 2 2 3 2 2 2 1 3 2 2 2 2 2 2 4 3 2 2 3 2 2 3 4 4 5 5 5 5 5 4 4 5 6 6 5 5 4 4 5 5
2 2 2 2 3 3 3 3 4 5 5 7 6 6 3 5 6 6 7 7 7 6 2 3 3 3 4 4 5 4 5 4 4 5 6 6 5 5 5 5 5 5 6
3 3 3 3 3 3 2 3 3 3 6 7 8 8 7 6 7 7 8 8 8 7 3 3 3 3 4 4 4 5 6 5 6 6 6 5 6 6 7 6 6 6 7
3 5 3 3 2 3 2 2 2 3 3 3 5 6 7 8 7 7 7 6 3 4 2 3 4 4 5 5 5 6 6 7 7 6 5 5 6 6 6 6 6 6 6
2 2 2 2 3 3 2 2 2 3 3 3 3 4 6 7 7 7 7 2 2 2 4 4 4 4 4 6 7 6 7 7 6 6 7 6 6 7 7 7 6 8 8
2 4 5 3 3 2 2 3 3 3 3 3 3 2 3 4 3 2 3 2 3 4 4 5 5 5 6 7 7 7 7 6 7 7 7 8 8 8 8 8 7 7 7
3 3 5 3 3 2 3 3 3 3 3 3 2 3 10 3 3 3 2 3 4 6 7 7 7 7 7 7 8 7 7 7 7 7 9 9 8 9 8 8 8 7 8
4 4 4 3 2 2 3 3 3 3 4 4 3 4 10 4 2 3 4 5 5 6 6 7 7 8 7 6 6 6 7 7 8 9 9 9 9 8 8 8 7 7 7
3 3 3 3 2 4 3 4 4 4 5 5 4 5 4 4 5 5 5 5 5 6 7 7 8 8 7 7 8 8 8 8 9 9 9 9 9 8 7 8 8 8 8
2 2 2 2 3 3 4 3 4 6 5 5 4 5 4 4 4 4 5 5 6 7 8 8 8 7 7 8 8 8 8 8 8 9 9 8 8 9 8 8 8 8 7
3 3 2 2 4 4 4 5 5 5 5 5 5 5 5 4 4 4 6 6 7 8 8 8 8 8 9 9 8 9 12 13 9 11 9 8 8 7 7 7 7 8 7
3 3 2 3 4 4 4 4 4 4 5 4 4 4 4 6 6 6 6 6 7 7 7 8 8 8 9 9 10 12 13 13 12 13 9 8 8 7 7 7 7 6 7